Weather History for KALX - May, 2014

Change the Weather History Date:

Thursday, May 15, 2014

  Actual Average (KAUO) Record (KAUO)
Temperature  
Mean Temperature 60 °F -  
Max Temperature 70 °F - 92 °F (1985)
Min Temperature 50 °F - 41 °F (1960)
Degree Days  
Heating Degree Days 5    
Cooling Degree Days 0    
Month to date cooling degree days  
Year to date cooling degree days  
Growing Degree Days 10 (Base 50)    
Moisture  
Dew Point 49 °F    
Average Humidity 69    
Maximum Humidity 86    
Minimum Humidity 41    
Precipitation  
Precipitation 0.01 in - 3.28 in (1969)
Month to date precipitation  
Year to date precipitation  
Sea Level Pressure  
Sea Level Pressure 30.06 in    
Wind  
Wind Speed 8 mph (NW)    
Max Wind Speed 16 mph    
Max Gust Speed 25 mph    
Visibility 9 miles    
Events Rain    
T = Trace of Precipitation, MM = Missing Value Source: NWS Daily Summary

Daily Weather History Graph

Daily Weather History Graph

Search for Another Location

Airport or City:

Trip Planner

Search our weather history database for the weather conditions in past years. The results will help you decide how hot, cold, wet, or windy it might be!

Date:

Astronomy

May. 15, 2014 Rise Set
Actual Time 5:44 AM CDT 7:36 PM CDT
Civil Twilight 5:17 AM CDT 8:03 PM CDT
Nautical Twilight 4:44 AM CDT 8:36 PM CDT
Astronomical Twilight 4:09 AM CDT 9:11 PM CDT
Moon 8:43 PM CDT (5/15) 6:30 AM CDT (5/15)
Length of Visible Light 14h 45m
Length of Day
13h 51m
Full, 99% of the Moon is Illuminated
May 15
Full
May 21
Last Quarter
May 28
New
Jun 5
First Quarter
Jun 12
Full

Hourly Weather History & Observations

Time (CDT) Temp. Dew Point Humidity Pressure Visibility Wind Dir Wind Speed Gust Speed Precip Events Conditions
12:15 AM 70.7 °F 66.2 °F 86% 29.96 in 10.0 mi SW 3.5 mph - N/A   Overcast
12:35 AM 70.7 °F 66.2 °F 86% 29.96 in 10.0 mi SSW 3.5 mph - N/A   Overcast
12:55 AM 70.7 °F 66.2 °F 86% 29.95 in 7.0 mi SSW 5.8 mph - N/A Rain Light Rain
1:15 AM 65.5 °F 60.8 °F 85% 29.96 in 4.0 mi West 8.1 mph - 0.01 in   Light Drizzle
1:35 AM 65.5 °F 60.8 °F 85% 29.96 in 10.0 mi West 12.7 mph 16.1 mph 0.01 in   Overcast
1:55 AM 63.5 °F 59.0 °F 85% 29.96 in 7.0 mi WNW 6.9 mph - 0.01 in   Overcast
2:15 AM 62.8 °F 58.1 °F 85% 29.97 in 10.0 mi WNW 9.2 mph - N/A   Overcast
2:35 AM 61.9 °F 57.0 °F 84% 29.96 in 7.0 mi WNW 8.1 mph - N/A   Overcast
2:55 AM 61.7 °F 56.7 °F 84% 29.97 in 4.0 mi WNW 5.8 mph - N/A   Haze
3:15 AM 60.3 °F 55.6 °F 85% 29.97 in 4.0 mi WNW 8.1 mph 19.6 mph N/A   Overcast
3:35 AM 60.3 °F 55.6 °F 85% 29.98 in 7.0 mi WNW 11.5 mph 19.6 mph N/A   Overcast
3:55 AM 58.3 °F 53.4 °F 84% 29.98 in 4.0 mi WNW 8.1 mph 16.1 mph N/A   Overcast
4:15 AM 57.7 °F 53.1 °F 84% 29.99 in 3.0 mi WNW 6.9 mph - N/A   Haze
4:35 AM 57.7 °F 53.1 °F 84% 30.00 in 10.0 mi WNW 9.2 mph - N/A   Overcast
4:55 AM 57.7 °F 52.7 °F 83% 30.00 in 10.0 mi WNW 8.1 mph - N/A Rain Light Rain
5:35 AM 57.7 °F 52.7 °F 83% 30.01 in 10.0 mi NW 4.6 mph - N/A   Overcast
5:55 AM 57.7 °F 52.7 °F 83% 30.01 in 7.0 mi NW 8.1 mph - N/A   Light Drizzle
6:15 AM 57.7 °F 52.7 °F 83% 30.02 in 10.0 mi NW 8.1 mph - N/A   Overcast
6:35 AM 57.7 °F 52.7 °F 83% 30.03 in 10.0 mi NW 9.2 mph - N/A   Overcast
6:55 AM 56.8 °F 52.2 °F 84% 30.04 in 7.0 mi WNW 9.2 mph - N/A   Overcast
7:15 AM 55.4 °F 50.4 °F 83% 30.05 in 5.0 mi WNW 8.1 mph - N/A   Haze
7:35 AM 55.4 °F 50.2 °F 83% 30.06 in 10.0 mi WNW 5.8 mph - N/A   Light Drizzle
7:55 AM 55.4 °F 50.0 °F 82% 30.06 in 10.0 mi WNW 8.1 mph - N/A   Overcast
8:15 AM 55.4 °F 49.3 °F 80% 30.06 in 10.0 mi NW 11.5 mph 25.3 mph N/A   Overcast
8:35 AM 57.7 °F 50.7 °F 77% 30.06 in 10.0 mi NW 9.2 mph 16.1 mph N/A   Overcast
8:55 AM 57.7 °F 50.2 °F 76% 30.06 in 10.0 mi NW 9.2 mph - N/A   Overcast
9:15 AM 57.7 °F 49.3 °F 73% 30.07 in 10.0 mi NNW 13.8 mph 21.9 mph N/A   Overcast
9:35 AM 59.4 °F 49.6 °F 70% 30.07 in 10.0 mi WNW 11.5 mph 20.7 mph N/A   Overcast
9:55 AM 57.7 °F 48.7 °F 72% 30.08 in 10.0 mi NW 12.7 mph 20.7 mph N/A   Overcast
10:15 AM 57.9 °F 48.0 °F 70% 30.09 in 10.0 mi NW 8.1 mph - N/A   Overcast
10:35 AM 60.3 °F 49.3 °F 67% 30.09 in 10.0 mi NNW 8.1 mph - N/A   Mostly Cloudy
10:55 AM 60.3 °F 48.0 °F 64% 30.09 in 10.0 mi NNW 8.1 mph - N/A   Mostly Cloudy
11:15 AM 61.2 °F 47.3 °F 60% 30.09 in 10.0 mi NNW 13.8 mph 21.9 mph N/A   Mostly Cloudy
11:35 AM 62.1 °F 46.8 °F 57% 30.09 in 10.0 mi NNW 12.7 mph - N/A   Overcast
11:55 AM 62.1 °F 45.3 °F 54% 30.09 in 10.0 mi NW 10.4 mph - N/A   Overcast
12:35 PM 62.8 °F 45.3 °F 53% 30.09 in 10.0 mi NW 10.4 mph 19.6 mph N/A   Overcast
12:55 PM 63.7 °F 44.1 °F 49% 30.09 in 10.0 mi West 10.4 mph 19.6 mph N/A   Mostly Cloudy
1:15 PM 62.8 °F 44.8 °F 52% 30.09 in 10.0 mi NNW 13.8 mph 18.4 mph N/A   Mostly Cloudy
2:15 PM 65.3 °F 43.2 °F 45% 30.08 in 10.0 mi NNW 15.0 mph 25.3 mph N/A   Overcast
2:55 PM 63.0 °F 43.9 °F 50% 30.09 in 10.0 mi NNW 16.1 mph 20.7 mph N/A   Overcast
3:15 PM 62.8 °F 43.5 °F 49% 30.08 in 10.0 mi NW 12.7 mph 18.4 mph N/A   Overcast
3:35 PM 65.3 °F 45.3 °F 48% 30.08 in 10.0 mi NW 15.0 mph 21.9 mph N/A   Mostly Cloudy
3:55 PM 63.3 °F 42.4 °F 46% 30.07 in 10.0 mi NNW 11.5 mph 21.9 mph N/A   Mostly Cloudy
4:15 PM 68.0 °F 43.9 °F 42% 30.07 in 10.0 mi NW 13.8 mph 19.6 mph N/A   Scattered Clouds
4:35 PM 70.2 °F 45.9 °F 42% 30.06 in 10.0 mi WNW 12.7 mph 18.4 mph N/A   Mostly Cloudy
4:55 PM 65.5 °F 43.2 °F 44% 30.06 in 10.0 mi North 12.7 mph 19.6 mph N/A   Scattered Clouds
5:15 PM 68.0 °F 44.8 °F 43% 30.06 in 10.0 mi NW 11.5 mph 16.1 mph N/A   Clear
5:35 PM 65.7 °F 41.9 °F 42% 30.06 in 10.0 mi NNW 12.7 mph 20.7 mph N/A   Clear
5:55 PM 66.7 °F 42.3 °F 41% 30.06 in 10.0 mi NW 10.4 mph 20.7 mph N/A   Clear
6:15 PM 65.5 °F 41.2 °F 41% 30.06 in 10.0 mi NW 12.7 mph 20.7 mph N/A   Clear
6:35 PM 65.5 °F 41.9 °F 42% 30.07 in 10.0 mi NW 9.2 mph 18.4 mph N/A   Clear
6:55 PM 63.3 °F 41.4 °F 45% 30.08 in 10.0 mi NW 6.9 mph - N/A   Clear
7:15 PM 62.4 °F 42.8 °F 49% 30.09 in 10.0 mi NW 4.6 mph - N/A   Clear
7:35 PM 60.3 °F 44.1 °F 55% 30.09 in 10.0 mi NW 4.6 mph - N/A   Clear
7:55 PM 60.1 °F 46.8 °F 61% 30.10 in 10.0 mi West 3.5 mph - N/A   Clear
8:15 PM 57.7 °F 45.7 °F 64% 30.10 in 10.0 mi WNW 3.5 mph - N/A   Clear
8:35 PM 57.7 °F 47.1 °F 68% 30.10 in 10.0 mi Calm Calm - N/A   Clear
8:55 PM 55.8 °F 47.3 °F 73% 30.11 in 10.0 mi Calm Calm - N/A   Clear
9:15 PM 55.4 °F 47.7 °F 75% 30.12 in 10.0 mi Calm Calm - N/A   Clear
9:35 PM 55.4 °F 47.8 °F 76% 30.12 in 10.0 mi WNW 3.5 mph - N/A   Clear
9:55 PM 55.4 °F 47.3 °F 74% 30.13 in 10.0 mi WNW 3.5 mph - N/A   Clear
10:15 PM 55.4 °F 46.9 °F 73% 30.13 in 10.0 mi Calm Calm - N/A   Clear
10:35 PM 55.4 °F 47.7 °F 75% 30.13 in 10.0 mi Calm Calm - N/A   Clear
10:55 PM 53.6 °F 47.5 °F 80% 30.13 in 10.0 mi Calm Calm - N/A   Clear
11:15 PM 50.2 °F 45.0 °F 82% 30.13 in 10.0 mi Calm Calm - N/A   Clear
11:35 PM 51.1 °F 46.2 °F 83% 30.13 in 10.0 mi Calm Calm - N/A   Clear
11:55 PM 50.2 °F 45.5 °F 84% 30.13 in 10.0 mi Calm Calm - N/A   Clear